Regional Weather Roundup
Issued by NWS

Home | Current Version | Previous Version | Graphics & Text | Print | Product List | Glossary On
Versions: 1 2 3 4 5 6 7 8 9 10 11 12 13 14 15 16 17 18 19 20 21 22 23 24 25 26 27 28 29 30 31 32 33 34 35 36 37 38 39 40 41 42 43 44 45 46 47 48 49 50
000
ASUS43 KLOT 011112
RWRIL

ILLINOIS REGIONAL WEATHER ROUNDUP
NATIONAL WEATHER SERVICE CHICAGO/ROMEOVILLE IL
600 AM CDT TUE SEP 01 2015

NOTE: "FAIR" INDICATES FEW OR NO CLOUDS BELOW 12,000 FEET WITH NO
SIGNIFICANT WEATHER AND/OR OBSTRUCTIONS TO VISIBILITY.

* THESE STATIONS ARE NOT UNDER NWS QUALITY CONTROL. THEY ALSO MAY NOT
  REPORT WEATHER SUCH AS PRECIPITATION OR FOG.

ILZ001-002-007-009-015-016-024-011200-
NORTHWEST ILLINOIS

CITY           SKY/WX    TMP DP  RH WIND       PRES   REMARKS
MOLINE         PTCLDY    73  69  87 CALM      30.02R
STERLING*      CLEAR     70  70 100 CALM      30.01R
SAVANNA*       PTCLDY    70  68  93 S5        30.01S FOG
$$

ILZ003-004-008-010-011-017-018-011200-
NORTH CENTRAL ILLINOIS

CITY           SKY/WX    TMP DP  RH WIND       PRES   REMARKS
ROCKFORD       PTCLDY    69  67  93 S3        30.04R FOG
FREEPORT*      CLEAR     70  68  95 S7        30.04R FOG
ROCHELLE*      CLEAR     67  67  99 CALM      30.04S FOG
DE KALB*         N/A     67  67  98 S5        30.05R FOG
PERU*          CLEAR     70  69  95 SW5       30.04S FOG
$$

ILZ005-006-012>014-019>023-011200-
NORTHEAST ILLINOIS

CITY           SKY/WX    TMP DP  RH WIND       PRES   REMARKS
CHICAGO-OHARE  CLEAR     70  68  93 CALM      30.04R
CHICAGO-MIDWAY CLEAR     74  69  85 S7        30.04R
AURORA         FOG       68  66  93 SE6       30.05S VSB 1/4
LANSING*       PTCLDY    68  67  97 S5        30.06R
JOLIET*        CLOUDY    70  69  98 CALM      30.05R FOG
WAUKEGAN       CLEAR     69  67  93 SW6       30.03R FOG
DUPAGE AIRPORT PTCLDY    69  67  93 S5        30.04S FOG
KANKAKEE*      PTCLDY    68  67  97 CALM      30.07S
WHEELING       CLEAR     68  65  90 SE3       30.05R FOG
MORRIS*        PTCLDY    69  68  97 CALM      30.04R FOG
ROMEOVILLE*    MOCLDY    69  69  99 S5        30.05R FOG
NORTHERLY ISL    N/A     73  68  84 S1          N/A
$$

LMZ740>746-011200-
SOUTHERN LAKE MICHIGAN

STATION/POSITION SKY/WX   TEMP    WIND        PRES    VSBY  WAVE
                          AIR SEA DIR/SP/G                  HT/PER
                          (F)     (DEG/KT/KT) (MB)    (MI)  (FT/S)
SOUTHERN BUOY              71 69  180/  8/  8 1016.8R         0
WILMETTE HARBOR            67 61  340/  6/  6   N/A           0
HARRISON CRIB              74     180/ 12/ 13   N/A
BURNHAM HARBOR             74     180/  3/  6   N/A
CALUMET HARBOR             72     180/  4/  5   N/A
BURNS HARBOR               72     180/  8/ 11 1018.3R
MICHIGAN CITY              75     170/ 11/ 13   N/A
MICHIGAN CITY 6N           73 72  190/  8/ 10   N/A           1
ST. JOSEPH                 72 71  210/  6/  8   N/A           1
$$

ILZ025>027-034>036-040-047-049-050-058-095>099-011200-
WEST-CENTRAL ILLINOIS

CITY           SKY/WX    TMP DP  RH WIND       PRES   REMARKS
QUINCY         CLEAR     72  69  90 S8        30.05R
GALESBURG*     CLEAR     70  69  96 S6        30.04R FOG
MACOMB*        CLEAR     72  70  95 SW5       30.06R
JACKSONVILLE*  CLEAR     74  71  89 S6        30.07R
PITTSFIELD*    CLEAR     72  69  89 S5        30.07S
$$

ILZ028>032-037-038-041>044-048-051>054-059>061-011200-
CENTRAL ILLINOIS

CITY           SKY/WX    TMP DP  RH WIND       PRES   REMARKS
PONTIAC        CLEAR     71  71  98 S3        30.06R
BLOOMINGTON    CLEAR     72  71  96 SW9       30.08R
DECATUR        PTCLDY    72  68  87 S6        30.08R
PEORIA         MOCLDY    73  69  87 SW5       30.05R FOG
LACON*         CLEAR     71  69  94 S3        30.03S
LINCOLN*       CLEAR     71  68  92 S3        30.06R FOG
SPRINGFIELD    CLEAR     73  70  90 SW6       30.07R
TAYLORVILLE    CLEAR     68  68 100 S5        30.08S FOG
$$

ILZ033-039-045-046-055>057-062-063-011200-
EAST-CENTRAL ILLINOIS

CITY           SKY/WX    TMP DP  RH WIND       PRES   REMARKS
CHAMPAIGN      PTCLDY    73  70  90 S5        30.09R
RANTOUL*       MOCLDY    71  69  94 CALM      30.08S THUNDER
MATTOON        CLOUDY    71  68  90 E3        30.10R THUNDER
PARIS*         CLOUDY    70  69  97 SW3       30.12R THUNDER
$$

ILZ079-100>102-011200-
SOUTHWEST ILLINOIS

CITY           SKY/WX    TMP DP  RH WIND       PRES   REMARKS
ALTON          CLEAR     68  68  98 CALM      30.09R FOG
BELLEVILLE     PTCLDY    70  70 100 CALM      30.08R
CAHOKIA*       CLEAR     71  69  93 CALM      30.08R
SPARTA*        MOCLDY    71  68  89 S3        30.11R
$$

ILZ064>066-069>071-074>076-080>082-084>086-088>090-092>094-011200-
SOUTH-CENTRAL ILLINOIS

CITY           SKY/WX    TMP DP  RH WIND       PRES   REMARKS
CARBONDALE     MOCLDY    67  65  93 CALM      30.11R FOG
CAIRO*         CLEAR     64  64 100 CALM      30.11R
EFFINGHAM*     PTCLDY    71  67  87 CALM      30.11R THUNDER
MARION         CLEAR     70  68  94 CALM      30.11S
MT. VERNON     PTCLDY    68  63  83 CALM      30.12R
SALEM*         CLEAR     72  69  89 CALM      30.11R
METROPOLIS*    CLEAR     65  65 100 CALM      30.12S FOG
$$

ILZ067-068-072-073-078-083-087-091-011200-
SOUTHEAST ILLINOIS

CITY           SKY/WX    TMP DP  RH WIND       PRES   REMARKS
LAWRENCEVILLE  CLEAR     68  66  93 CALM      30.12R FOG
FLORA*         PTCLDY    67  66  95 S5        30.11R
FAIRFIELD*     CLOUDY    66  66  99 CALM      30.11R FOG
HARRISBURG*    CLOUDY    66  66  98 CALM      30.11S
ROBINSON*      PTCLDY    66  65  97 CALM      30.13R THUNDER FOG
CARMI*         CLEAR     64  64  99 CALM      30.11R FOG
$$

ABBREVIATIONS USED IN REMARKS
   TC - TEMPERATURE IN CELSIUS
  WCI - WIND CHILL INDEX
   HX - HEAT INDEX
  VSB - VISIBILITY
$$



USA.gov is the U.S. government's official web portal to all federal, state and local government web resources and services.